DCCHB EDHL-EDDP

Flight info

Callsign DCCHB
Flight time 0h 30m
Altitude 23000
Route RAMAR2A RAMAR Z998 NUSGU/N0438F270 Z998 BIRMO M736 MAG/N0437F280 Z20 KENIG/N0413F230 T959 KOJEC KOJEC1R
Aircraft LJ35/M-SGHRWXY/SB1

Departure

Time 2026-04-21 16:24
Airport Lübeck Blankensee Airport (EDHL)

Arrival

Time 2026-04-21 16:54
Airport Leipzig/Halle Airport (EDDP)
Time Latitude Longitude Altitude Speed Heading
2026-04-21 16:15 53.80464 10.70288 56 ft 0 kts 342°
2026-04-21 16:22 53.80466 10.70245 55 ft 10 kts 233°
2026-04-21 16:23 53.80399 10.70142 55 ft 15 kts 219°
2026-04-21 16:23 53.80289 10.70143 56 ft 18 kts 169°
2026-04-21 16:23 53.80211 10.70249 56 ft 21 kts 74°
2026-04-21 16:23 53.80352 10.70985 55 ft 116 kts 71°
2026-04-21 16:24 53.80662 10.72631 622 ft 165 kts 69°
2026-04-21 16:24 53.81055 10.74570 1528 ft 183 kts 69°
2026-04-21 16:24 53.81120 10.76782 2402 ft 201 kts 102°
2026-04-21 16:24 53.80317 10.78919 3440 ft 232 kts 130°
2026-04-21 16:25 53.79110 10.80829 4789 ft 240 kts 133°
2026-04-21 16:25 53.77917 10.82817 6140 ft 245 kts 131°
2026-04-21 16:25 53.76668 10.84891 7170 ft 261 kts 132°
2026-04-21 16:25 53.75310 10.87076 7989 ft 284 kts 133°
2026-04-21 16:26 53.73815 10.89473 8699 ft 310 kts 133°
2026-04-21 16:26 53.72230 10.92025 9891 ft 314 kts 133°
2026-04-21 16:26 53.70542 10.94451 10985 ft 326 kts 143°
2026-04-21 16:26 53.68516 10.96264 12094 ft 335 kts 154°
2026-04-21 16:27 53.66260 10.97595 12922 ft 358 kts 158°
2026-04-21 16:27 53.63737 10.98850 13178 ft 397 kts 161°
2026-04-21 16:27 53.61078 11.00084 14339 ft 397 kts 160°
2026-04-21 16:27 53.58407 11.01446 15103 ft 404 kts 159°
2026-04-21 16:28 53.55715 11.02886 15929 ft 409 kts 159°
2026-04-21 16:28 53.52975 11.04287 16718 ft 414 kts 160°
2026-04-21 16:28 53.50191 11.05664 17485 ft 419 kts 160°
2026-04-21 16:28 53.47388 11.07077 18240 ft 423 kts 160°
2026-04-21 16:29 53.44554 11.08531 18906 ft 428 kts 160°
2026-04-21 16:29 53.41686 11.09987 19547 ft 432 kts 160°
2026-04-21 16:29 53.38797 11.11437 20154 ft 435 kts 160°
2026-04-21 16:29 53.35815 11.12540 20724 ft 442 kts 167°
2026-04-21 16:30 53.32757 11.13326 21299 ft 447 kts 169°
2026-04-21 16:30 53.29651 11.13909 21846 ft 451 kts 171°
2026-04-21 16:30 53.26524 11.14483 22371 ft 454 kts 169°
2026-04-21 16:30 53.23386 11.15187 22936 ft 455 kts 168°
2026-04-21 16:31 53.20256 11.15911 23762 ft 453 kts 168°
2026-04-21 16:31 53.17128 11.16563 24496 ft 452 kts 169°
2026-04-21 16:31 53.14007 11.17189 25209 ft 450 kts 169°
2026-04-21 16:31 53.10902 11.17849 25942 ft 449 kts 168°
2026-04-21 16:32 53.07816 11.18524 26680 ft 448 kts 169°
2026-04-21 16:32 53.04771 11.19168 27385 ft 448 kts 169°
2026-04-21 16:32 53.01655 11.19817 27727 ft 455 kts 169°
2026-04-21 16:32 52.98495 11.20481 28030 ft 460 kts 169°
2026-04-21 16:33 52.95304 11.21156 28286 ft 463 kts 169°
2026-04-21 16:33 52.88895 11.22497 28292 ft 465 kts 169°
2026-04-21 16:34 52.82471 11.23843 28293 ft 465 kts 169°
2026-04-21 16:34 52.76039 11.25183 28292 ft 466 kts 169°
2026-04-21 16:35 52.69604 11.26522 28287 ft 466 kts 169°
2026-04-21 16:35 52.63160 11.27858 28197 ft 466 kts 169°
2026-04-21 16:35 52.59940 11.28526 27481 ft 464 kts 169°
2026-04-21 16:36 52.56748 11.29185 26742 ft 462 kts 169°
2026-04-21 16:36 52.53567 11.29840 26031 ft 459 kts 170°
2026-04-21 16:36 52.50401 11.30492 25345 ft 457 kts 170°
2026-04-21 16:36 52.47254 11.31141 24694 ft 455 kts 170°
2026-04-21 16:37 52.44117 11.31785 24049 ft 453 kts 170°
2026-04-21 16:37 52.40993 11.32423 23345 ft 451 kts 170°
2026-04-21 16:37 52.37884 11.33061 22620 ft 449 kts 170°
2026-04-21 16:37 52.34797 11.33695 21924 ft 446 kts 170°
2026-04-21 16:38 52.31766 11.34315 21266 ft 443 kts 171°
2026-04-21 16:38 52.28715 11.34935 20619 ft 441 kts 171°
2026-04-21 16:38 52.25675 11.35553 19986 ft 438 kts 171°
2026-04-21 16:38 52.22662 11.36167 19389 ft 436 kts 171°
2026-04-21 16:39 52.19660 11.36777 18788 ft 433 kts 171°
2026-04-21 16:39 52.16679 11.37381 18155 ft 431 kts 171°
2026-04-21 16:39 52.13711 11.37983 17509 ft 428 kts 171°
2026-04-21 16:39 52.10769 11.38732 16878 ft 425 kts 166°
2026-04-21 16:40 52.07895 11.39782 16272 ft 422 kts 164°
2026-04-21 16:40 52.05086 11.40978 15766 ft 412 kts 162°
2026-04-21 16:40 52.02347 11.42178 15272 ft 404 kts 163°
2026-04-21 16:40 51.99640 11.43282 14797 ft 398 kts 164°
2026-04-21 16:41 51.97866 11.43981 14486 ft 395 kts 164°
2026-04-21 16:41 51.94328 11.45420 13845 ft 389 kts 163°
2026-04-21 16:41 51.91754 11.46490 13326 ft 372 kts 163°
2026-04-21 16:41 51.89304 11.47492 12825 ft 356 kts 163°
2026-04-21 16:42 51.86949 11.48448 12338 ft 343 kts 163°
2026-04-21 16:42 51.84665 11.49380 11837 ft 334 kts 162°
2026-04-21 16:42 51.82439 11.50292 11361 ft 326 kts 162°
2026-04-21 16:42 51.80260 11.51181 10882 ft 320 kts 162°
2026-04-21 16:43 51.78120 11.52049 10415 ft 315 kts 162°
2026-04-21 16:43 51.76010 11.52907 9936 ft 311 kts 162°
2026-04-21 16:43 51.73917 11.53759 9437 ft 308 kts 162°
2026-04-21 16:43 51.71874 11.54588 9029 ft 306 kts 162°
2026-04-21 16:44 51.69780 11.55436 8676 ft 306 kts 162°
2026-04-21 16:44 51.67725 11.56270 8349 ft 303 kts 162°
2026-04-21 16:44 51.65759 11.57058 8064 ft 284 kts 162°
2026-04-21 16:44 51.63890 11.57808 7778 ft 270 kts 161°
2026-04-21 16:45 51.62087 11.58546 7476 ft 266 kts 161°
2026-04-21 16:45 51.60299 11.59274 7223 ft 264 kts 161°
2026-04-21 16:45 51.58512 11.59990 6916 ft 265 kts 161°
2026-04-21 16:45 51.56719 11.60711 6615 ft 266 kts 162°
2026-04-21 16:46 51.54924 11.61437 6324 ft 267 kts 162°
2026-04-21 16:46 51.53123 11.62158 6037 ft 266 kts 162°
2026-04-21 16:46 51.51326 11.62879 5739 ft 265 kts 162°
2026-04-21 16:46 51.49544 11.63596 5454 ft 263 kts 162°
2026-04-21 16:47 51.47843 11.64555 5179 ft 256 kts 144°
2026-04-21 16:47 51.46621 11.66535 4972 ft 247 kts 120°
2026-04-21 16:47 51.45755 11.68890 4856 ft 244 kts 115°
2026-04-21 16:47 51.44946 11.71268 4758 ft 242 kts 114°
2026-04-21 16:48 51.44152 11.73625 4712 ft 240 kts 114°
2026-04-21 16:48 51.43368 11.75971 4634 ft 238 kts 114°
2026-04-21 16:48 51.42590 11.78303 4547 ft 237 kts 114°
2026-04-21 16:48 51.41814 11.80617 4464 ft 235 kts 114°
2026-04-21 16:49 51.41301 11.82144 4402 ft 235 kts 114°
2026-04-21 16:49 51.40529 11.84442 4323 ft 233 kts 114°
2026-04-21 16:49 51.39800 11.86756 4215 ft 232 kts 106°
2026-04-21 16:49 51.39658 11.89277 4081 ft 228 kts 82°
2026-04-21 16:50 51.39818 11.91796 4006 ft 228 kts 82°
2026-04-21 16:50 51.39936 11.94329 3860 ft 231 kts 83°
2026-04-21 16:50 51.40050 11.96925 3560 ft 235 kts 83°
2026-04-21 16:50 51.40180 11.99485 3250 ft 226 kts 83°
2026-04-21 16:51 51.40283 12.01898 2939 ft 209 kts 83°
2026-04-21 16:51 51.40397 12.04137 2657 ft 196 kts 82°
2026-04-21 16:51 51.40490 12.06265 2388 ft 187 kts 82°
2026-04-21 16:51 51.40586 12.08263 2145 ft 169 kts 82°
2026-04-21 16:52 51.40666 12.10028 1913 ft 150 kts 81°
2026-04-21 16:52 51.40744 12.11629 1711 ft 141 kts 81°
2026-04-21 16:52 51.40816 12.13177 1492 ft 137 kts 81°
2026-04-21 16:52 51.40894 12.14685 1227 ft 135 kts 80°
2026-04-21 16:53 51.40962 12.16157 1035 ft 135 kts 83°
2026-04-21 16:53 51.41033 12.17690 835 ft 137 kts 81°
2026-04-21 16:53 51.41104 12.19172 659 ft 134 kts 82°
2026-04-21 16:53 51.41170 12.20662 480 ft 133 kts 82°
2026-04-21 16:54 51.41233 12.22005 462 ft 99 kts 86°
2026-04-21 16:54 51.41271 12.22777 467 ft 44 kts 84°
2026-04-21 16:54 51.41290 12.23125 468 ft 21 kts 85°
2026-04-21 16:54 51.41355 12.23251 470 ft 16 kts 354°
2026-04-21 16:55 51.41486 12.23237 466 ft 21 kts 357°
2026-04-21 16:55 51.41596 12.23208 465 ft 13 kts 319°
2026-04-21 16:55 51.41631 12.23054 462 ft 16 kts 284°
2026-04-21 16:55 51.41662 12.22866 453 ft 16 kts 285°
2026-04-21 16:56 51.41692 12.22692 445 ft 18 kts 286°
2026-04-21 16:56 51.41730 12.22478 436 ft 22 kts 284°
2026-04-21 16:56 51.41770 12.22240 425 ft 20 kts 285°
2026-04-21 16:56 51.41803 12.22047 428 ft 16 kts 285°
2026-04-21 16:57 51.41832 12.21881 430 ft 14 kts 285°
2026-04-21 16:57 51.41852 12.21766 426 ft 7 kts 285°
2026-04-21 16:57 51.41864 12.21695 431 ft 7 kts 286°
2026-04-21 16:57 51.41878 12.21611 432 ft 9 kts 284°
2026-04-21 16:58 51.41897 12.21501 428 ft 11 kts 285°
2026-04-21 16:58 51.41918 12.21377 429 ft 10 kts 285°
2026-04-21 16:58 51.41960 12.21356 428 ft 7 kts 15°
2026-04-21 16:58 51.41996 12.21372 428 ft 3 kts 15°
2026-04-21 16:59 51.42003 12.21375 428 ft 0 kts 15°